GW1082 Weather Reports


time (UTC)temp
C
wind
direction
speed
KPH
gust
KPH
rain 1hr
cm
rain 24hr
cm
rain mn
cm
humidity
%
barometer
mb
20260502123017 0 38 0.0 1.6 0.00 0.00 0.00 83 1018.9
20260502121524 -1 23 0.0 0.0 0.00 0.00 0.00 85 1018.9
20260502114510 -2 23 0.0 0.0 0.00 0.00 0.00 85 1019.0
20260502113028 -2 23 0.0 0.0 0.00 0.00 0.00 85 1019.1
20260502111524 -2 23 0.0 0.0 0.00 0.00 0.00 85 1019.1
20260502110022 -2 23 0.0 0.0 0.00 0.00 0.00 84 1019.1
20260502104538 -2 23 0.0 0.0 0.00 0.00 0.00 84 1019.2
20260502103010 -2 23 0.0 0.0 0.00 0.00 0.00 84 1019.3
20260502101513 -2 23 0.0 0.0 0.00 0.00 0.00 84 1019.4
20260502091509 -2 23 0.0 0.0 0.00 0.00 0.00 83 1019.5
20260502071524 -1 23 0.0 0.0 0.00 0.00 0.00 82 1019.8
20260502070028 -1 23 0.0 0.0 0.00 0.00 0.00 81 1019.9
20260502064527 0 23 0.0 0.0 0.00 0.00 0.00 80 1020.0
20260502063022 0 23 0.0 0.0 0.00 0.00 0.00 81 1020.0
20260502061523 0 23 0.0 0.0 0.00 0.00 0.00 79 1020.0
20260502060027 0 23 0.0 0.0 0.00 0.00 0.00 78 1020.1
20260502054528 0 23 0.0 0.0 0.00 0.00 0.00 77 1020.1
20260502053018 0 23 0.0 0.0 0.00 0.00 0.00 77 1020.2
20260502051524 0 23 0.0 0.0 0.00 0.00 0.00 76 1020.3
20260502050026 1 23 0.0 0.0 0.00 0.00 0.00 75 1020.0
20260502044509 1 23 0.0 0.0 0.00 0.00 0.00 73 1020.0
20260502043018 1 23 0.0 0.0 0.00 0.00 0.00 72 1020.0
20260502041518 2 23 0.0 0.0 0.00 0.00 0.00 72 1020.0
20260502040026 2 23 0.0 0.0 0.00 0.00 0.00 71 1020.1
20260502034531 2 23 0.0 0.0 0.00 0.00 0.00 70 1020.2
20260502033013 3 23 0.0 0.0 0.00 0.00 0.00 69 1020.2
20260502031516 3 23 0.0 0.0 0.00 0.00 0.00 65 1020.1
20260502030024 4 23 0.0 0.0 0.00 0.00 0.00 65 1020.0
20260502024525 5 23 0.0 0.0 0.00 0.00 0.00 59 1019.8
20260502023028 6 19 0.0 0.0 0.00 0.00 0.00 55 1019.8
20260502021516 7 19 0.0 1.6 0.00 0.00 0.00 48 1019.7
20260502020022 8 4 0.0 3.2 0.00 0.00 0.00 46 1019.6
20260502014524 8 357 1.6 4.8 0.00 0.00 0.00 44 1019.5
20260502013025 8 309 0.0 0.0 0.00 0.00 0.00 44 1019.5
20260502011547 9 315 1.6 6.4 0.00 0.00 0.00 41 1019.5
20260502010019 10 342 0.0 6.4 0.00 0.00 0.00 41 1019.4
20260502004522 10 11 3.2 11.3 0.00 0.00 0.00 40 1019.4
20260502003028 10 1 1.6 6.4 0.00 0.00 0.00 41 1019.2
20260502001526 11 3 3.2 8.0 0.00 0.00 0.00 39 1019.0
20260502000029 11 6 4.8 12.9 0.00 0.00 0.00 38 1019.0
20260501234521 11 11 4.8 9.7 0.00 0.00 0.00 39 1019.0
20260501233021 11 342 3.2 14.5 0.00 0.00 0.00 39 1018.9
20260501231537 11 252 3.2 11.3 0.00 0.00 0.00 36 1018.9
20260501230029 11 339 3.2 16.1 0.00 0.00 0.00 37 1018.9
20260501224530 11 354 4.8 16.1 0.00 0.00 0.00 38 1018.9
20260501223023 11 359 3.2 16.1 0.00 0.00 0.00 37 1019.0
20260501221523 12 20 4.8 12.9 0.00 0.00 0.00 39 1018.9
20260501220039 11 347 6.4 19.3 0.00 0.00 0.00 36 1019.1
20260501214530 11 8 3.2 14.5 0.00 0.00 0.00 38 1019.1
20260501213028 11 1 6.4 12.9 0.00 0.00 0.00 39 1019.2
20260501211524 11 333 6.4 14.5 0.00 0.00 0.00 42 1019.4
20260501210026 10 9 6.4 14.5 0.00 0.00 0.00 41 1019.5
20260501204528 10 27 4.8 12.9 0.00 0.00 0.00 44 1019.6
20260501203029 10 351 3.2 12.9 0.00 0.00 0.00 41 1019.8
20260501201525 10 340 4.8 17.7 0.00 0.00 0.00 44 1020.0
20260501200006 10 330 4.8 17.7 0.00 0.00 0.00 42 1019.8
20260501194516 10 86 4.8 17.7 0.00 0.00 0.00 45 1019.9
20260501193032 10 51 6.4 14.5 0.00 0.00 0.00 44 1020.0
20260501191529 10 319 3.2 14.5 0.00 0.00 0.00 44 1019.9
20260501190048 9 360 6.4 19.3 0.00 0.00 0.00 46 1020.0
20260501184510 9 271 3.2 14.5 0.00 0.00 0.00 46 1020.0
20260501183020 8 32 8.0 16.1 0.00 0.00 0.00 47 1020.0
20260501181521 8 38 4.8 25.7 0.00 0.00 0.00 48 1020.1
20260501180026 8 341 4.8 14.5 0.00 0.00 0.00 48 1020.1
20260501174528 8 13 4.8 17.7 0.00 0.00 0.00 51 1020.2
20260501173012 8 24 6.4 17.7 0.00 0.00 0.00 49 1020.2
20260501171516 7 7 4.8 19.3 0.00 0.00 0.00 50 1020.3
20260501170023 7 1 11.3 17.7 0.00 0.00 0.00 50 1020.4
20260501164529 7 113 3.2 17.7 0.00 0.00 0.00 54 1020.3
20260501163026 6 359 6.4 14.5 0.00 0.00 0.00 53 1020.4
20260501161516 6 346 6.4 19.3 0.00 0.00 0.00 54 1020.4
20260501160019 6 13 4.8 16.1 0.00 0.00 0.00 53 1020.3
20260501154540 6 347 6.4 16.1 0.00 0.00 0.00 55 1020.4
20260501153027 5 18 6.4 16.1 0.00 0.00 0.00 58 1020.4
20260501151509 5 353 4.8 14.5 0.00 0.00 0.00 57 1020.4
20260501150016 5 353 8.0 16.1 0.00 0.00 0.00 59 1020.4
20260501144523 5 295 4.8 12.9 0.00 0.00 0.00 61 1020.4
20260501143033 4 52 6.4 12.9 0.00 0.00 0.00 63 1020.3
20260501141549 3 334 4.8 11.3 0.00 0.00 0.00 66 1020.4
20260501140012 3 306 4.8 9.7 0.00 0.00 0.00 69 1020.4